Location: Les Jeannots
(43.2262°N, 5.5774°E)
Time: 02:59:18
(UTC+00:00)

Cosmos 1943 Rocket - Pass Details

Date: 05 July 2020
Orbit: 811 x 845 km, 71.0° (Epoch: 04 August)

Event Time Altitude Azimuth Distance (km) Brightness Sun altitude
Rises 22:54:01 0° 341° (NNW) 3,414 6.8 -23.2°
Reaches altitude 10° 22:56:45 10° 352° (N) 2,475 5.7 -23.3°
Maximum altitude 23:01:49 32° 55° (NE) 1,402 3.5 -23.4°
Enters shadow 23:04:38 21° 102° (ESE) 1,799 3.7 -23.5°
